[[{"header":{"parameterUnit":"m.s-1","parameterCategory":2,"la1":30.2991,"la2":30.254,"lo1":-89.0895,"lo2":-89.0444,"dy":0.0017,"dx":0.0017,"nx":28,"ny":28,"refTime":"2025-05-29T03:00:00:Z","depth":"0","parameterNumber":2,"parameterNumberName":"U-component_of_CURRENTS"},"data":[0,0,0,0,0,0,0,0,0,0,0,0,0,0,0,0,0,0,0,0,0,0,0,0,0,0,0,0,0,0,0,0,0,0,0,0,0,0,0,0,0,0,0,0,0,0,0,0,0,0,0,0,0,0,0,0,0,0,-0.2381,-0.2382,0,-0.2406,-0.2406,-0.2406,-0.2388,-0.2388,-0.2387,-0.2387,-0.2374,-0.2375,-0.2375,0,0,0,0,0,0,0,0,0,0,0,0,0,-0.2322,-0.2323,-0.2381,-0.2382,-0.2382,-0.2406,-0.2406,-0.2406,-0.2389,-0.2388,-0.2387,-0.2387,-0.2374,-0.2375,-0.2375,0,0,0,0,0,0,0,0,0,0,0,0,0,-0.2345,-0.2324,-0.2381,-0.2378,-0.2378,-0.2406,-0.2406,-0.2406,-0.2389,-0.2388,-0.2387,-0.2386,-0.2374,-0.2375,-0.2375,-0.2394,0,0,-0.2376,-0.2376,0,0,0,0,0,0,0,0,-0.2344,-0.2347,-0.2378,-0.2378,-0.2379,-0.2395,-0.2381,-0.2401,-0.2389,-0.2382,-0.2387,-0.2386,-0.238,-0.238,-0.2384,-0.2393,-0.2393,-0.2376,-0.2376,-0.2376,-0.2376,0,0,0,0,0,0,0,-0.2342,-0.2346,-0.2389,-0.2379,-0.2379,-0.2377,-0.2379,-0.2385,-0.2383,-0.2383,-0.2382,-0.2389,-0.238,-0.2383,-0.2383,-0.2393,-0.2376,-0.2376,-0.2376,-0.2376,-0.2411,-0.2412,0,0,0,0,0,0,-0.2345,-0.2345,-0.2388,-0.239,-0.2362,-0.2379,-0.2381,-0.2389,-0.2384,-0.2383,-0.239,-0.2388,-0.2383,-0.2383,-0.2383,-0.2402,-0.2376,-0.2376,-0.2377,-0.241,-0.2411,-0.2412,0,0,0,0,0,0,-0.2344,-0.2349,-0.2387,-0.2369,-0.2374,-0.2381,-0.239,-0.239,-0.2391,-0.239,-0.2388,-0.2391,-0.2383,-0.2382,-0.2389,-0.2402,-0.2377,-0.2377,-0.2409,-0.241,-0.2411,-0.2443,0,0,0,0,0,0,-0.2342,-0.2348,-0.2351,-0.237,-0.2376,-0.2409,-0.2391,-0.2391,-0.2398,-0.2396,-0.2391,-0.2389,-0.2382,-0.2389,-0.2389,-0.2402,-0.2377,-0.2408,-0.241,-0.2411,-0.2441,-0.2445,-0.2449,0,0,0,0,0,-0.234,-0.2351,-0.2351,-0.2356,-0.2381,-0.241,-0.2413,-0.2412,-0.2399,-0.2408,-0.24,-0.2389,-0.2398,-0.239,-0.239,-0.2403,-0.2408,-0.2409,-0.2411,-0.244,-0.2445,-0.2449,0,0,0,0,0,0,-0.2325,-0.2351,-0.2351,-0.2369,-0.239,-0.2408,-0.2414,-0.2415,-0.2417,-0.241,-0.24,-0.2398,-0.2411,-0.2404,-0.2395,-0.2417,-0.2401,-0.2402,-0.2422,-0.2427,-0.243,-0.2431,-0.2377,0,0,0,0,0,-0.2325,-0.2337,-0.2365,-0.2377,-0.2388,-0.24,-0.2409,-0.2415,-0.2422,-0.2421,-0.2418,-0.2414,-0.242,-0.242,-0.2425,-0.2436,-0.2413,-0.2445,-0.2448,-0.2452,-0.2453,-0.2431,-0.2432,-0.2417,-0.2417,-0.2417,0,0,-0.2321,-0.2337,-0.2342,-0.2374,-0.2385,-0.2413,-0.2403,-0.2423,-0.2441,-0.242,-0.2434,-0.243,-0.2428,-0.2442,-0.2447,-0.2435,-0.2443,-0.2454,-0.2456,-0.2456,-0.2433,-0.2434,-0.2435,-0.2418,-0.2418,-0.2418,0,0,-0.2327,-0.2335,-0.2351,-0.2375,-0.2403,-0.2417,-0.2425,-0.2448,-0.2451,-0.247,-0.2459,-0.2461,-0.247,-0.247,-0.247,-0.2498,-0.2467,-0.2501,-0.2516,-0.2495,-0.2496,-0.2496,-0.2461,-0.2458,-0.2498,-0.2498,-0.2498,0,-0.2318,-0.2345,-0.236,-0.2389,-0.2408,-0.2422,-0.2448,-0.2464,-0.2484,-0.2487,-0.2477,-0.2484,-0.2483,-0.2495,-0.2507,-0.2506,-0.2483,-0.2499,-0.2499,-0.2499,-0.2499,-0.2463,-0.2459,-0.25,-0.25,-0.25,-0.25,0,-0.2341,-0.2366,-0.2378,-0.2417,-0.2442,-0.2466,-0.2497,-0.2513,-0.2514,-0.2523,-0.2532,-0.2527,-0.2526,-0.2531,-0.2529,-0.2534,-0.2513,-0.2508,-0.2485,-0.2502,-0.2463,-0.2458,-0.2503,-0.2502,-0.2501,-0.2501,0,0,-0.2305,-0.238,-0.2382,-0.2405,-0.2457,-0.2477,-0.2514,-0.2544,-0.2553,-0.2565,-0.2569,-0.2582,-0.2568,-0.2569,-0.2562,-0.2548,-0.2529,-0.2531,-0.2529,-0.2491,-0.2469,-0.2353,-0.2337,-0.2521,-0.2521,-0.2521,-0.2438,0,-0.2312,-0.2367,-0.2405,-0.245,-0.2478,-0.2512,-0.2544,-0.2572,-0.2583,-0.2593,-0.2587,-0.2589,-0.2587,-0.2579,-0.257,-0.2545,-0.252,-0.2551,-0.2462,-0.2459,-0.2351,-0.2329,-0.2204,-0.2112,-0.2434,-0.2433,-0.2432,0,-0.2313,-0.2351,-0.2398,-0.2463,-0.2476,-0.2505,-0.254,-0.2574,-0.2601,-0.2607,-0.2609,-0.2603,-0.2599,-0.2586,-0.254,-0.2559,-0.2518,-0.249,-0.2485,-0.2363,-0.2335,-0.2149,-0.2091,-0.2078,-0.2425,-0.2426,-0.2426,0,-0.2261,-0.234,-0.2372,-0.2396,-0.2473,-0.2491,-0.2526,-0.2565,-0.2585,-0.2607,-0.2609,-0.2606,-0.2588,-0.2556,-0.2501,-0.2522,-0.243,-0.2448,-0.23,-0.2291,-0.2159,-0.2138,-0.2071,-0.24,-0.24,-0.24,-0.24,0,-0.2242,-0.2263,-0.2349,-0.2363,-0.2391,-0.2459,-0.2482,-0.2517,-0.2562,-0.2563,-0.2603,-0.258,-0.2578,-0.2529,-0.2492,-0.2364,-0.2415,-0.2288,-0.2257,-0.2165,-0.2146,-0.2108,-0.2151,-0.2397,-0.2398,-0.2398,-0.2399,0,-0.2166,-0.223,-0.2264,-0.2344,-0.2365,-0.2378,-0.2453,-0.2466,-0.2524,-0.2525,-0.253,-0.2552,-0.2472,-0.2442,-0.2368,-0.232,-0.218,-0.2172,-0.2054,-0.2009,-0.1858,-0.1908,-0.1822,-0.1772,-0.2001,-0.1997,-0.1994,0,-0.2128,-0.214,-0.222,-0.2231,-0.226,-0.2302,-0.2325,-0.2419,-0.2438,-0.248,-0.2465,-0.2419,-0.2324,-0.2184,-0.2091,-0.1972,-0.2017,-0.1815,-0.183,-0.1811,-0.1846,-0.1906,-0.1876,-0.1672,-0.1666,-0.1662,-0.1658,0,-0.2035,-0.2064,-0.2086,-0.2121,-0.2146,-0.2177,-0.2222,-0.2224,-0.2312,-0.2282,-0.2214,-0.2142,-0.205,-0.186,-0.175,-0.1682,-0.1768,-0.1719,-0.1734,-0.1599,-0.1627,-0.1575,-0.1773,-0.162,-0.1624,-0.1626,-0.1629,-0.163,-0.1937,-0.1929,-0.1962,-0.198,-0.2015,-0.2001,-0.193,-0.1958,-0.1902,-0.1773,-0.1875,-0.1655,-0.1694,-0.1494,-0.1435,-0.133,-0.1447,-0.1305,-0.137,-0.1437,-0.137,-0.1468,-0.1261,-0.1263,-0.1264,-0.1266,-0.1267,0,-0.1801,-0.1809,-0.1821,-0.1815,-0.1776,-0.1849,-0.1817,-0.1689,-0.1497,-0.1394,-0.125,-0.1133,-0.105,-0.1099,-0.1079,-0.1018,-0.1034,-0.1023,-0.1102,-0.1091,-0.1181,-0.1146,-0.0862,-0.0862,-0.0862,-0.0862,-0.0862,-0.0862,-0.1728,-0.1687,-0.1703,-0.1583,-0.1557,-0.1402,-0.1318,-0.1141,-0.1005,-0.0679,-0.0503,-0.0438,-0.0684,-0.0963,-0.0966,-0.0914,-0.0943,-0.0895,-0.0974,-0.1068,-0.1102,-0.1133,-0.1109,-0.0822,-0.0822,-0.0817,-0.0817,-0.0817]},{"header":{"parameterUnit":"m.s-1","parameterCategory":2,"la1":30.2991,"la2":30.254,"lo1":-89.0895,"lo2":-89.0444,"dy":0.0017,"dx":0.0017,"nx":28,"ny":28,"refTime":"2025-05-29T03:00:00:Z","depth":"0","parameterNumber":3,"parameterNumberName":"V-component_of_CURRENTS"},"data":[0,0,0,0,0,0,0,0,0,0,0,0,0,0,0,0,0,0,0,0,0,0,0,0,0,0,0,0,0,0,0,0,0,0,0,0,0,0,0,0,0,0,0,0,0,0,0,0,0,0,0,0,0,0,0,0,0,0,-0.0371,-0.0371,0,-0.0276,-0.0275,-0.0274,-0.0209,-0.0209,-0.0209,-0.0208,-0.0087,-0.0084,-0.0082,0,0,0,0,0,0,0,0,0,0,0,0,0,-0.0442,-0.0441,-0.0372,-0.037,-0.0369,-0.0276,-0.0275,-0.0274,-0.0209,-0.0209,-0.0209,-0.0208,-0.0088,-0.0085,-0.0081,0,0,0,0,0,0,0,0,0,0,0,0,0,-0.0385,-0.0441,-0.0372,-0.0327,-0.0322,-0.0277,-0.0275,-0.0273,-0.021,-0.0209,-0.0208,-0.0208,-0.0089,-0.0085,-0.0081,-0.0065,0,0,-0.0068,-0.0066,0,0,0,0,0,0,0,0,-0.0388,-0.0382,-0.0335,-0.033,-0.0324,-0.0255,-0.0255,-0.0203,-0.021,-0.0251,-0.0208,-0.0208,-0.0142,-0.0133,-0.0116,-0.006,-0.0054,-0.0067,-0.0065,-0.0063,-0.0062,0,0,0,0,0,0,0,-0.0392,-0.0385,-0.0333,-0.0333,-0.0327,-0.0292,-0.0284,-0.0245,-0.02,-0.0248,-0.0243,-0.0234,-0.0139,-0.012,-0.0112,-0.0053,-0.0067,-0.0064,-0.0061,-0.0059,0.0035,0.0035,0,0,0,0,0,0,-0.0409,-0.039,-0.0336,-0.033,-0.0356,-0.0292,-0.0282,-0.0277,-0.02,-0.0189,-0.0235,-0.0231,-0.0128,-0.0117,-0.0108,-0.0086,-0.0063,-0.0059,-0.0056,0.0035,0.0035,0.0035,0,0,0,0,0,0,-0.0411,-0.0406,-0.034,-0.0358,-0.0347,-0.0292,-0.0286,-0.0275,-0.0256,-0.0191,-0.0178,-0.0226,-0.0127,-0.0114,-0.0075,-0.0081,-0.0057,-0.0053,0.0035,0.0035,0.0035,-0.0042,0,0,0,0,0,0,-0.0414,-0.0407,-0.041,-0.036,-0.0347,-0.0322,-0.0286,-0.0274,-0.0252,-0.0246,-0.0179,-0.0167,-0.0125,-0.0082,-0.0071,-0.0074,-0.0049,0.0035,0.0035,0.0035,-0.0039,-0.0044,-0.0049,0,0,0,0,0,-0.0417,-0.0425,-0.0411,-0.0404,-0.0353,-0.0322,-0.0313,-0.027,-0.0252,-0.0249,-0.0202,-0.017,-0.0075,-0.0079,-0.0065,-0.0068,0.0035,0.0035,0.0035,-0.0037,-0.0043,-0.0049,0,0,0,0,0,0,-0.0455,-0.0418,-0.0402,-0.0398,-0.0367,-0.0312,-0.0305,-0.0277,-0.0237,-0.0231,-0.017,-0.0155,-0.0123,-0.0085,-0.0091,-0.0041,-0.0015,-0.0012,-0.0074,-0.0079,-0.0084,-0.0099,-0.0046,0,0,0,0,0,-0.0467,-0.0465,-0.0422,-0.0419,-0.0408,-0.0358,-0.0341,-0.0313,-0.0271,-0.0252,-0.0206,-0.0156,-0.0114,-0.009,-0.0048,-0.0021,0.0026,-0.0014,-0.0019,-0.0023,-0.0026,0.0035,0.0035,0.0034,0.0034,0.0034,0,0,-0.0481,-0.0461,-0.0459,-0.0428,-0.04,-0.0392,-0.0346,-0.0326,-0.0317,-0.0246,-0.0221,-0.0173,-0.0111,-0.0081,-0.0063,-0.0049,0.0003,-0.0023,-0.0028,-0.0028,0.0035,0.0035,0.0035,0.0034,0.0034,0.0034,0,0,-0.0513,-0.0491,-0.0503,-0.0483,-0.0451,-0.0419,-0.0418,-0.0369,-0.0345,-0.0315,-0.0262,-0.0218,-0.0156,-0.0112,-0.0081,-0.0088,-0.0027,-0.0076,-0.011,-0.0052,-0.0051,-0.005,0.0012,0.0019,-0.0077,-0.0077,-0.0077,0,-0.0533,-0.0541,-0.0501,-0.0507,-0.0498,-0.0438,-0.0448,-0.0414,-0.0359,-0.034,-0.0318,-0.022,-0.0171,-0.0125,-0.0127,-0.01,-0.0055,-0.0096,-0.0059,-0.0057,-0.0055,0.0009,0.0017,-0.008,-0.008,-0.008,-0.0079,0,-0.0573,-0.058,-0.0585,-0.0574,-0.0557,-0.0556,-0.0508,-0.0487,-0.045,-0.0408,-0.0357,-0.0284,-0.0225,-0.0203,-0.0166,-0.0126,-0.0096,-0.0076,-0.0048,-0.006,0.0008,0.0019,-0.0086,-0.0084,-0.0083,-0.0082,0,0,-0.0617,-0.0617,-0.0618,-0.063,-0.0596,-0.0587,-0.0572,-0.0537,-0.052,-0.046,-0.043,-0.0356,-0.0308,-0.027,-0.0213,-0.0161,-0.0105,-0.0118,-0.0114,-0.0064,0.003,0.0073,0.0089,-0.0079,-0.0078,-0.0077,0.0071,0,-0.0663,-0.0703,-0.0679,-0.0707,-0.0725,-0.0671,-0.066,-0.0617,-0.0562,-0.0516,-0.0433,-0.0381,-0.0335,-0.0304,-0.0246,-0.0135,-0.0081,-0.0147,0.004,0.0046,0.008,0.0101,0.0152,0.029,0.0082,0.0084,0.0085,0,-0.0711,-0.0733,-0.0779,-0.0784,-0.0783,-0.0783,-0.0749,-0.0729,-0.0645,-0.0599,-0.0528,-0.0454,-0.0365,-0.0327,-0.0153,-0.0196,-0.0096,-0.0011,-0.0003,0.007,0.0109,0.0269,0.0318,0.0461,0.0102,0.0101,0.0099,0,-0.0773,-0.0798,-0.0842,-0.0845,-0.0837,-0.084,-0.0825,-0.0758,-0.0731,-0.0646,-0.0602,-0.0493,-0.0414,-0.0293,-0.0118,-0.0133,0.0084,0.0088,0.0221,0.0226,0.0324,0.0334,0.0527,0.0203,0.0203,0.0202,0.0202,0,-0.0837,-0.0867,-0.0877,-0.0903,-0.0939,-0.0904,-0.0909,-0.087,-0.0799,-0.0746,-0.0649,-0.0566,-0.04,-0.0252,-0.0121,0.0095,0.0087,0.0225,0.027,0.0299,0.0305,0.0477,0.0513,0.0208,0.0206,0.0205,0.0204,0,-0.0899,-0.0908,-0.0958,-0.097,-0.0975,-0.0998,-0.0974,-0.0965,-0.0886,-0.0809,-0.0782,-0.0605,-0.0404,-0.0231,-0.0,0.0113,0.0392,0.0367,0.0391,0.0434,0.0666,0.0693,0.0907,0.1004,0.0532,0.0534,0.0536,0,-0.0935,-0.0971,-0.1014,-0.1045,-0.1054,-0.1076,-0.1083,-0.1023,-0.0986,-0.0811,-0.0766,-0.0563,-0.0376,-0.0031,0.0179,0.0418,0.0511,0.0599,0.057,0.07,0.0764,0.0771,0.0837,0.0679,0.0682,0.0684,0.0686,0,-0.0997,-0.101,-0.1047,-0.1122,-0.115,-0.1163,-0.1151,-0.1122,-0.1008,-0.0894,-0.0673,-0.0507,-0.0184,0.013,0.0402,0.0538,0.0704,0.0651,0.0793,0.0902,0.0918,0.1025,0.0557,0.0705,0.0703,0.0702,0.0701,0.07,-0.1025,-0.1069,-0.1121,-0.1185,-0.1221,-0.1207,-0.1157,-0.109,-0.0971,-0.0724,-0.0586,-0.0245,0.0124,0.0527,0.0659,0.0946,0.0885,0.1051,0.1078,0.1077,0.1158,0.0727,0.0911,0.091,0.091,0.0909,0.0909,0,-0.1053,-0.1104,-0.1178,-0.1215,-0.1233,-0.124,-0.1166,-0.1049,-0.0844,-0.063,-0.0362,0.019,0.0572,0.0864,0.1216,0.1377,0.1399,0.1457,0.1494,0.1545,0.1193,0.1187,0.143,0.143,0.143,0.1429,0.1429,0.1429,-0.1067,-0.1144,-0.119,-0.1216,-0.1215,-0.1132,-0.1052,-0.0861,-0.0669,-0.0247,0.0099,0.0372,0.0813,0.1381,0.1738,0.1765,0.1912,0.1879,0.1959,0.1722,0.1686,0.1652,0.1659,0.1996,0.1996,0.2323,0.2326,0.2328]}],[{"header":{"parameterUnit":"m.s-1","parameterCategory":2,"la1":30.2991,"la2":30.254,"lo1":-89.0895,"lo2":-89.0444,"dy":0.0017,"dx":0.0017,"nx":28,"ny":28,"refTime":"2025-05-29T03:00:00:Z","depth":"2","parameterNumber":2,"parameterNumberName":"U-component_of_CURRENTS"},"data":[0,0,0,0,0,0,0,0,0,0,0,0,0,0,0,0,0,0,0,0,0,0,0,0,0,0,0,0,0,0,0,0,0,0,0,0,0,0,0,0,0,0,0,0,0,0,0,0,0,0,0,0,0,0,0,0,0,0,-0.235,-0.235,0,-0.2378,-0.2378,-0.2378,-0.2366,-0.2365,-0.2365,-0.2364,-0.2362,-0.2362,-0.2363,0,0,0,0,0,0,0,0,0,0,0,0,0,-0.2289,-0.229,-0.235,-0.235,-0.2351,-0.2378,-0.2378,-0.2378,-0.2366,-0.2365,-0.2364,-0.2364,-0.2362,-0.2362,-0.2363,0,0,0,0,0,0,0,0,0,0,0,0,0,-0.2314,-0.229,-0.235,-0.235,-0.235,-0.2377,-0.2378,-0.2378,-0.2366,-0.2365,-0.2364,-0.2364,-0.2362,-0.2362,-0.2363,-0.2381,0,0,-0.2365,-0.2365,0,0,0,0,0,0,0,0,-0.2312,-0.2316,-0.2349,-0.235,-0.235,-0.2369,-0.2356,-0.2378,-0.2366,-0.2357,-0.2364,-0.2363,-0.2364,-0.2364,-0.2368,-0.2381,-0.2381,-0.2365,-0.2365,-0.2365,-0.2366,0,0,0,0,0,0,0,-0.2311,-0.2314,-0.2358,-0.235,-0.2351,-0.2349,-0.2352,-0.236,-0.2362,-0.2358,-0.2358,-0.2365,-0.2363,-0.2368,-0.2368,-0.2381,-0.2365,-0.2365,-0.2366,-0.2366,-0.2409,-0.2409,0,0,0,0,0,0,-0.2313,-0.2313,-0.2358,-0.236,-0.2332,-0.2351,-0.2354,-0.2362,-0.2363,-0.2363,-0.2365,-0.2364,-0.2367,-0.2367,-0.2368,-0.2393,-0.2365,-0.2366,-0.2366,-0.2408,-0.2409,-0.241,0,0,0,0,0,0,-0.2311,-0.2316,-0.2357,-0.2338,-0.2344,-0.2353,-0.2362,-0.2363,-0.2367,-0.2369,-0.2368,-0.2369,-0.2366,-0.2367,-0.2378,-0.2392,-0.2366,-0.2367,-0.2407,-0.2408,-0.2409,-0.244,0,0,0,0,0,0,-0.2309,-0.2316,-0.232,-0.2339,-0.2345,-0.2379,-0.2363,-0.2364,-0.2373,-0.2372,-0.2372,-0.2371,-0.2366,-0.2378,-0.2379,-0.2392,-0.2367,-0.2406,-0.2407,-0.2409,-0.2438,-0.2442,-0.2445,0,0,0,0,0,-0.2307,-0.2318,-0.232,-0.2325,-0.2351,-0.238,-0.2383,-0.2385,-0.2374,-0.2384,-0.2381,-0.2371,-0.2388,-0.2379,-0.238,-0.2394,-0.2405,-0.2407,-0.2409,-0.2436,-0.2441,-0.2445,0,0,0,0,0,0,-0.2293,-0.2319,-0.2321,-0.2339,-0.236,-0.2379,-0.2386,-0.2389,-0.2394,-0.2389,-0.2382,-0.2382,-0.2399,-0.2393,-0.2384,-0.2411,-0.2394,-0.2397,-0.2415,-0.242,-0.2423,-0.2424,-0.2368,0,0,0,0,0,-0.2294,-0.2306,-0.2334,-0.2346,-0.2358,-0.2371,-0.2381,-0.2388,-0.2398,-0.2399,-0.24,-0.24,-0.2409,-0.241,-0.2418,-0.2433,-0.2412,-0.2442,-0.2446,-0.2449,-0.2451,-0.2433,-0.2434,-0.2415,-0.2415,-0.2415,0,0,-0.229,-0.2306,-0.2312,-0.2344,-0.2356,-0.2383,-0.2375,-0.2396,-0.2416,-0.2399,-0.2417,-0.2416,-0.2417,-0.2435,-0.2441,-0.243,-0.2443,-0.2452,-0.2454,-0.2455,-0.2435,-0.2436,-0.2438,-0.2416,-0.2416,-0.2416,0,0,-0.2296,-0.2306,-0.2322,-0.2345,-0.2374,-0.2389,-0.2397,-0.2422,-0.2428,-0.245,-0.2442,-0.2448,-0.2462,-0.2464,-0.2466,-0.2496,-0.2467,-0.2499,-0.2516,-0.2498,-0.2499,-0.2499,-0.2467,-0.2465,-0.2497,-0.2497,-0.2497,0,-0.2289,-0.2315,-0.2331,-0.2359,-0.2378,-0.2394,-0.242,-0.2437,-0.2462,-0.2467,-0.246,-0.2475,-0.2476,-0.2491,-0.2504,-0.2504,-0.2483,-0.2498,-0.2501,-0.2502,-0.2502,-0.2469,-0.2466,-0.2499,-0.2499,-0.2499,-0.2499,0,-0.2311,-0.2335,-0.2348,-0.2386,-0.2412,-0.2436,-0.2469,-0.2487,-0.2493,-0.2504,-0.252,-0.2518,-0.2523,-0.2528,-0.2527,-0.2535,-0.2515,-0.251,-0.2487,-0.2505,-0.247,-0.2466,-0.2502,-0.2501,-0.25,-0.25,0,0,-0.2279,-0.2349,-0.2352,-0.2375,-0.2427,-0.2448,-0.2487,-0.2521,-0.2533,-0.255,-0.2559,-0.2577,-0.2566,-0.2569,-0.2563,-0.2551,-0.2536,-0.2534,-0.2532,-0.2497,-0.2482,-0.2374,-0.2359,-0.2528,-0.2528,-0.2528,-0.2453,0,-0.2286,-0.2339,-0.2375,-0.2421,-0.2448,-0.2484,-0.2517,-0.255,-0.2565,-0.258,-0.2579,-0.2587,-0.2585,-0.2581,-0.2573,-0.255,-0.2529,-0.2555,-0.2474,-0.2472,-0.2369,-0.2353,-0.2187,-0.2098,-0.2449,-0.2449,-0.2448,0,-0.2287,-0.2324,-0.2372,-0.2435,-0.2449,-0.2479,-0.2521,-0.2555,-0.2588,-0.2598,-0.2606,-0.2604,-0.2603,-0.2591,-0.2551,-0.2567,-0.2529,-0.2503,-0.2499,-0.2385,-0.2356,-0.2139,-0.2077,-0.2441,-0.2442,-0.2443,-0.2443,0,-0.224,-0.2316,-0.235,-0.2373,-0.245,-0.247,-0.2506,-0.255,-0.2573,-0.2601,-0.2607,-0.261,-0.2595,-0.2567,-0.2518,-0.2535,-0.2454,-0.2467,-0.233,-0.2322,-0.2157,-0.2134,-0.2426,-0.2426,-0.2426,-0.2427,-0.2427,0,-0.2224,-0.2246,-0.2329,-0.2344,-0.2375,-0.2442,-0.2469,-0.2506,-0.2554,-0.2563,-0.2603,-0.2589,-0.2587,-0.2544,-0.251,-0.2393,-0.2442,-0.2321,-0.2291,-0.2162,-0.2141,-0.2426,-0.2427,-0.2424,-0.2424,-0.2425,-0.2425,0,-0.2155,-0.2216,-0.2251,-0.233,-0.2351,-0.2368,-0.2441,-0.2455,-0.2518,-0.2529,-0.2537,-0.2563,-0.2492,-0.2464,-0.2398,-0.2354,-0.2274,-0.2219,-0.2058,-0.2011,-0.2161,-0.2165,-0.2065,-0.2061,-0.2057,-0.2054,-0.2051,0,-0.2122,-0.2135,-0.2212,-0.222,-0.225,-0.2294,-0.2313,-0.2409,-0.2429,-0.2491,-0.2478,-0.2444,-0.2367,-0.2236,-0.2135,-0.2021,-0.2131,-0.1836,-0.1839,-0.214,-0.2122,-0.2132,-0.2141,-0.1633,-0.1628,-0.1623,-0.1619,0,-0.2037,-0.2065,-0.2088,-0.2112,-0.2135,-0.2168,-0.2213,-0.2233,-0.233,-0.2356,-0.2343,-0.2291,-0.2144,-0.1933,-0.1794,-0.1724,-0.1845,-0.1732,-0.207,-0.1752,-0.1726,-0.1712,-0.1736,-0.1576,-0.158,-0.1583,-0.1586,-0.1587,-0.1948,-0.194,-0.1965,-0.197,-0.2004,-0.2012,-0.2005,-0.2061,-0.2085,-0.2086,-0.216,-0.2029,-0.1915,-0.1593,-0.1467,-0.1375,-0.1511,-0.1474,-0.1492,-0.1514,-0.1479,-0.1448,-0.1238,-0.124,-0.1242,-0.1243,-0.1245,0,-0.1822,-0.1819,-0.1818,-0.182,-0.1787,-0.1882,-0.1905,-0.1857,-0.1839,-0.1868,-0.1861,-0.1589,-0.1411,-0.1297,-0.1068,-0.101,-0.1029,-0.0985,-0.1023,-0.1065,-0.1102,-0.105,-0.0693,-0.0692,-0.069,-0.0689,0,0,-0.1753,-0.1696,-0.1693,-0.1586,-0.1608,-0.1583,-0.1585,-0.1519,-0.1501,-0.1401,-0.1352,-0.1447,-0.1324,-0.1058,-0.0948,-0.0794,-0.0944,-0.0752,-0.1194,-0.1287,-0.1324,-0.1374,-0.1338,0,0,0,0,0]},{"header":{"parameterUnit":"m.s-1","parameterCategory":2,"la1":30.2991,"la2":30.254,"lo1":-89.0895,"lo2":-89.0444,"dy":0.0017,"dx":0.0017,"nx":28,"ny":28,"refTime":"2025-05-29T03:00:00:Z","depth":"2","parameterNumber":3,"parameterNumberName":"V-component_of_CURRENTS"},"data":[0,0,0,0,0,0,0,0,0,0,0,0,0,0,0,0,0,0,0,0,0,0,0,0,0,0,0,0,0,0,0,0,0,0,0,0,0,0,0,0,0,0,0,0,0,0,0,0,0,0,0,0,0,0,0,0,0,0,-0.0259,-0.0258,0,-0.0173,-0.0172,-0.0171,-0.0112,-0.0112,-0.0112,-0.0111,0.0,0.0003,0.0005,0,0,0,0,0,0,0,0,0,0,0,0,0,-0.0319,-0.0318,-0.0259,-0.0258,-0.0257,-0.0174,-0.0172,-0.0171,-0.0112,-0.0112,-0.0112,-0.0111,-0.0001,0.0002,0.0006,0,0,0,0,0,0,0,0,0,0,0,0,0,-0.0268,-0.0318,-0.0259,-0.0219,-0.0214,-0.0174,-0.0172,-0.0171,-0.0113,-0.0112,-0.0112,-0.0111,-0.0002,0.0002,0.0006,0.0021,0,0,0.0018,0.002,0,0,0,0,0,0,0,0,-0.0271,-0.0266,-0.0226,-0.0222,-0.0217,-0.0154,-0.0152,-0.0106,-0.0113,-0.015,-0.0111,-0.0111,-0.005,-0.0042,-0.0026,0.0026,0.0031,0.0019,0.0021,0.0023,0.0024,0,0,0,0,0,0,0,-0.0275,-0.0269,-0.0224,-0.0225,-0.0219,-0.0187,-0.0179,-0.0143,-0.0103,-0.0147,-0.0143,-0.0135,-0.0047,-0.003,-0.0023,0.0033,0.0019,0.0022,0.0025,0.0026,0.0109,0.0109,0,0,0,0,0,0,-0.0291,-0.0273,-0.0227,-0.0222,-0.0245,-0.0186,-0.0178,-0.0174,-0.0103,-0.0093,-0.0136,-0.0133,-0.0037,-0.0027,-0.0019,0.0003,0.0023,0.0027,0.0029,0.0109,0.0109,0.0109,0,0,0,0,0,0,-0.0293,-0.0288,-0.023,-0.0246,-0.0236,-0.0186,-0.0182,-0.0172,-0.0155,-0.0095,-0.0084,-0.0128,-0.0036,-0.0024,0.001,0.0008,0.0028,0.0032,0.011,0.0109,0.0109,0.0046,0,0,0,0,0,0,-0.0295,-0.0289,-0.0293,-0.0247,-0.0236,-0.0215,-0.0182,-0.0171,-0.0152,-0.0147,-0.0085,-0.0074,-0.0035,0.0004,0.0014,0.0014,0.0035,0.011,0.0109,0.0109,0.0049,0.0044,0.004,0,0,0,0,0,-0.0297,-0.0307,-0.0294,-0.0288,-0.0243,-0.0216,-0.0208,-0.0169,-0.0152,-0.0151,-0.0107,-0.0076,0.0009,0.0007,0.0019,0.002,0.011,0.011,0.0109,0.0051,0.0045,0.004,0,0,0,0,0,0,-0.0333,-0.03,-0.0285,-0.0284,-0.0257,-0.0207,-0.0202,-0.0176,-0.014,-0.0135,-0.0078,-0.0064,-0.0035,-0.0001,-0.0004,0.0042,0.0064,0.0066,0.0016,0.0011,0.0006,-0.0004,0.0038,0,0,0,0,0,-0.0345,-0.0344,-0.0305,-0.0305,-0.0295,-0.025,-0.0235,-0.021,-0.0171,-0.0155,-0.0112,-0.0067,-0.0028,-0.0004,0.0033,0.0059,0.0102,0.0067,0.0063,0.0059,0.0058,0.0119,0.012,0.0107,0.0107,0.0107,0,0,-0.0358,-0.034,-0.0339,-0.0313,-0.0288,-0.028,-0.0239,-0.0223,-0.0212,-0.0149,-0.0124,-0.0083,-0.0025,0.0004,0.002,0.0033,0.0084,0.0058,0.0054,0.0056,0.0119,0.012,0.0121,0.0107,0.0107,0.0107,0,0,-0.0388,-0.0371,-0.0381,-0.0364,-0.0336,-0.0306,-0.0306,-0.0262,-0.0239,-0.0211,-0.0163,-0.0123,-0.0068,-0.0023,0.0007,0.0001,0.0055,0.0009,-0.0015,0.0043,0.0044,0.0046,0.0097,0.0104,0.0011,0.0011,0.0011,0,-0.0408,-0.0414,-0.038,-0.0385,-0.0375,-0.0324,-0.0331,-0.0299,-0.025,-0.0229,-0.0215,-0.0123,-0.0078,-0.0028,-0.0031,-0.0008,0.003,-0.0002,0.0037,0.004,0.0043,0.0095,0.0103,0.0008,0.0008,0.0008,0.0009,0,-0.0444,-0.0448,-0.0454,-0.0443,-0.0427,-0.0426,-0.0381,-0.0361,-0.0327,-0.0288,-0.0239,-0.0174,-0.0117,-0.0098,-0.0065,-0.0021,0.0,0.0021,0.0048,0.0041,0.0096,0.0106,0.0003,0.0004,0.0005,0.0006,0,0,-0.0487,-0.0483,-0.0484,-0.0491,-0.0459,-0.0451,-0.0432,-0.0396,-0.0377,-0.0324,-0.0292,-0.0223,-0.0181,-0.0145,-0.0094,-0.0043,0.001,-0.0008,-0.0004,0.0038,0.0136,0.0167,0.0181,0.0038,0.0039,0.004,0.0164,0,-0.0527,-0.056,-0.0536,-0.0556,-0.0569,-0.0517,-0.0504,-0.0461,-0.0411,-0.0367,-0.0288,-0.0242,-0.02,-0.0173,-0.0114,-0.0019,0.0035,-0.0025,0.0141,0.0146,0.0171,0.0193,0.0179,0.0289,0.0174,0.0176,0.0177,0,-0.0571,-0.0587,-0.0623,-0.0618,-0.0617,-0.0616,-0.0578,-0.0556,-0.0476,-0.0435,-0.0366,-0.03,-0.0215,-0.0183,-0.0021,-0.0062,0.0028,0.0102,0.0109,0.0167,0.0196,0.0281,0.0312,0.0194,0.0193,0.0192,0.0191,0,-0.0628,-0.0643,-0.0677,-0.0677,-0.0663,-0.0663,-0.0647,-0.0582,-0.0557,-0.0476,-0.0441,-0.0332,-0.0265,-0.0148,0.0005,-0.0006,0.0187,0.0194,0.0308,0.0311,0.0347,0.0351,0.0306,0.0306,0.0306,0.0306,0.0305,0,-0.0684,-0.0707,-0.0711,-0.0731,-0.0761,-0.0724,-0.0727,-0.0688,-0.0623,-0.058,-0.0483,-0.0413,-0.0252,-0.012,0.0002,0.0193,0.0191,0.0313,0.035,0.0324,0.0324,0.028,0.0275,0.031,0.0309,0.0308,0.0308,0,-0.0743,-0.0745,-0.0786,-0.0791,-0.0795,-0.0816,-0.0795,-0.0784,-0.0713,-0.0652,-0.0629,-0.0464,-0.0283,-0.012,0.0094,0.0201,0.0366,0.0431,0.0385,0.0415,0.0448,0.0439,0.0569,0.0571,0.0573,0.0574,0.0576,0,-0.0777,-0.0807,-0.0843,-0.0869,-0.0876,-0.0896,-0.0902,-0.0846,-0.0818,-0.0667,-0.0634,-0.045,-0.0283,0.0033,0.0231,0.0451,0.0438,0.056,0.0537,0.0454,0.0478,0.0465,0.0454,0.0562,0.0563,0.0564,0.0564,0,-0.0837,-0.085,-0.0883,-0.0943,-0.0969,-0.0989,-0.0984,-0.098,-0.0881,-0.079,-0.0612,-0.0461,-0.0146,0.0118,0.0381,0.0501,0.0518,0.0586,0.0537,0.0488,0.0456,0.0476,0.0463,0.0572,0.0571,0.0571,0.057,0.057,-0.0873,-0.0914,-0.0955,-0.1001,-0.1039,-0.1059,-0.1061,-0.1013,-0.0942,-0.076,-0.0616,-0.0343,-0.0113,0.029,0.0465,0.0622,0.0623,0.0666,0.066,0.0653,0.0622,0.0594,0.073,0.073,0.073,0.073,0.073,0,-0.0908,-0.0945,-0.1002,-0.1059,-0.1097,-0.1103,-0.1088,-0.1041,-0.0933,-0.0711,-0.0504,-0.0226,0.0064,0.0296,0.0568,0.0721,0.0687,0.0728,0.0661,0.0654,0.0647,0.0611,0.0719,0.0719,0.0719,0.0719,0,0,-0.0925,-0.0978,-0.1001,-0.1069,-0.1117,-0.114,-0.1122,-0.1009,-0.0836,-0.0596,-0.0373,-0.0151,0.0135,0.0299,0.048,0.063,0.0601,0.0631,0.0632,0.0529,0.052,0.061,0.0548,0,0,0,0,0]}],[{"header":{"parameterUnit":"m.s-1","parameterCategory":2,"la1":30.2991,"la2":30.254,"lo1":-89.0895,"lo2":-89.0444,"dy":0.0017,"dx":0.0017,"nx":28,"ny":28,"refTime":"2025-05-29T03:00:00:Z","depth":"4","parameterNumber":2,"parameterNumberName":"U-component_of_CURRENTS"},"data":[0,0,0,0,0,0,0,0,0,0,0,0,0,0,0,0,0,0,0,0,0,0,0,0,0,0,0,0,0,0,0,0,0,0,0,0,0,0,0,0,0,0,0,0,0,0,0,0,0,0,0,0,0,0,0,0,0,0,-0.1757,-0.1758,0,-0.1826,-0.1827,-0.1827,-0.1875,-0.1875,-0.1876,-0.1876,-0.1949,-0.1951,-0.1952,0,0,0,0,0,0,0,0,0,0,0,0,0,-0.1662,-0.1663,-0.1757,-0.1758,-0.1759,-0.1826,-0.1827,-0.1828,-0.1875,-0.1876,-0.1876,-0.1877,-0.1949,-0.1951,-0.1952,0,0,0,0,0,0,0,0,0,0,0,0,0,-0.1713,-0.1664,-0.1756,-0.1792,-0.1795,-0.1826,-0.1827,-0.1828,-0.1875,-0.1876,-0.1876,-0.1877,-0.1948,-0.195,-0.1953,-0.1951,0,0,-0.1959,-0.196,0,0,0,0,0,0,0,0,-0.171,-0.1716,-0.1785,-0.1789,-0.1794,-0.1844,-0.182,-0.187,-0.1875,-0.1843,-0.1876,-0.1877,-0.1915,-0.192,-0.1929,-0.1955,-0.1958,-0.196,-0.1961,-0.1962,-0.1962,0,0,0,0,0,0,0,-0.1706,-0.1713,-0.1782,-0.1786,-0.1792,-0.1803,-0.1811,-0.183,-0.1873,-0.1846,-0.185,-0.186,-0.1917,-0.1927,-0.1931,-0.1959,-0.1959,-0.1961,-0.1963,-0.1964,-0.206,-0.2061,0,0,0,0,0,0,-0.1701,-0.171,-0.178,-0.1785,-0.1755,-0.1804,-0.1813,-0.1826,-0.1873,-0.1881,-0.1859,-0.1862,-0.1923,-0.1928,-0.1934,-0.2006,-0.1962,-0.1964,-0.1965,-0.2059,-0.206,-0.2062,0,0,0,0,0,0,-0.1698,-0.1706,-0.1778,-0.175,-0.176,-0.1805,-0.1819,-0.1827,-0.1866,-0.1883,-0.1891,-0.1894,-0.1923,-0.1931,-0.1978,-0.2006,-0.1965,-0.1967,-0.2057,-0.2059,-0.2061,-0.2104,0,0,0,0,0,0,-0.1695,-0.1705,-0.1726,-0.175,-0.1762,-0.1816,-0.1819,-0.1828,-0.187,-0.1875,-0.1915,-0.1921,-0.1925,-0.1975,-0.198,-0.2008,-0.1969,-0.2056,-0.2058,-0.206,-0.2101,-0.2107,-0.2112,0,0,0,0,0,-0.1692,-0.1713,-0.1726,-0.1736,-0.1784,-0.1818,-0.1826,-0.1858,-0.1871,-0.1895,-0.1923,-0.1921,-0.1993,-0.1978,-0.1984,-0.2013,-0.2055,-0.2058,-0.206,-0.2099,-0.2106,-0.2112,0,0,0,0,0,0,-0.1686,-0.1721,-0.1736,-0.1769,-0.1801,-0.1827,-0.1855,-0.1874,-0.1914,-0.1927,-0.1939,-0.1947,-0.1999,-0.2,-0.1983,-0.2048,-0.2023,-0.2027,-0.205,-0.2057,-0.2063,-0.2056,-0.197,0,0,0,0,0,-0.1693,-0.1719,-0.1752,-0.1781,-0.1799,-0.1832,-0.1855,-0.1878,-0.191,-0.193,-0.1958,-0.1985,-0.2009,-0.203,-0.2052,-0.2088,-0.2066,-0.2111,-0.2116,-0.2121,-0.212,-0.2111,-0.2115,-0.2071,-0.2071,-0.2071,0,0,-0.1699,-0.1722,-0.1739,-0.1783,-0.181,-0.1844,-0.1848,-0.1893,-0.1928,-0.193,-0.1993,-0.201,-0.2024,-0.2067,-0.2089,-0.2076,-0.2122,-0.2124,-0.2128,-0.2125,-0.2114,-0.2118,-0.2122,-0.2073,-0.2072,-0.2072,0,0,-0.1716,-0.1747,-0.1773,-0.1803,-0.1851,-0.1871,-0.1891,-0.1935,-0.1966,-0.2019,-0.2028,-0.2061,-0.2108,-0.2118,-0.2128,-0.2177,-0.2153,-0.2191,-0.2216,-0.2207,-0.221,-0.2213,-0.2183,-0.2183,-0.2193,-0.2193,-0.2193,0,-0.1725,-0.176,-0.1787,-0.182,-0.185,-0.1887,-0.1923,-0.1957,-0.2015,-0.2037,-0.2049,-0.2111,-0.2128,-0.2161,-0.2182,-0.2189,-0.2174,-0.2188,-0.2213,-0.2215,-0.2217,-0.2186,-0.2185,-0.2195,-0.2195,-0.2195,-0.2195,0,-0.175,-0.1793,-0.1812,-0.1865,-0.1901,-0.194,-0.1985,-0.203,-0.2069,-0.2095,-0.215,-0.217,-0.22,-0.2215,-0.2218,-0.2245,-0.2226,-0.2221,-0.2192,-0.2223,-0.219,-0.2187,-0.2199,-0.2198,-0.2197,-0.2197,0,0,-0.1727,-0.1814,-0.1824,-0.1858,-0.193,-0.1957,-0.202,-0.2074,-0.2108,-0.2163,-0.2199,-0.2246,-0.2254,-0.2264,-0.227,-0.2269,-0.2271,-0.2258,-0.2256,-0.2221,-0.2239,-0.2083,-0.2065,-0.2272,-0.2273,-0.2273,-0.2207,0,-0.1741,-0.1806,-0.1849,-0.1918,-0.1953,-0.2009,-0.2059,-0.2115,-0.2159,-0.2204,-0.2228,-0.2267,-0.2273,-0.2289,-0.2293,-0.2281,-0.2269,-0.2288,-0.222,-0.2217,-0.2069,-0.2059,-0.2273,-0.2205,-0.2205,-0.2204,-0.2204,0,-0.1741,-0.1788,-0.1858,-0.1942,-0.1963,-0.2013,-0.2088,-0.2139,-0.2203,-0.2237,-0.2274,-0.2292,-0.2314,-0.2309,-0.2293,-0.2307,-0.2279,-0.2259,-0.2256,-0.2092,-0.2057,-0.217,-0.22,-0.22,-0.2201,-0.2201,-0.2201,0,-0.1691,-0.1789,-0.1845,-0.1877,-0.1977,-0.2021,-0.2076,-0.215,-0.2188,-0.2255,-0.2278,-0.2308,-0.2317,-0.2303,-0.2271,-0.2288,-0.2228,-0.2241,-0.2068,-0.2056,-0.22,-0.2198,-0.2214,-0.2214,-0.2214,-0.2214,-0.2214,0,-0.1666,-0.1714,-0.1833,-0.1861,-0.1923,-0.2005,-0.2068,-0.2124,-0.2197,-0.2216,-0.2289,-0.2282,-0.2317,-0.229,-0.2266,-0.2141,-0.2219,-0.2055,-0.2023,-0.2219,-0.222,-0.2197,-0.2196,-0.2212,-0.2212,-0.2213,-0.2213,0,-0.1593,-0.1677,-0.1744,-0.1863,-0.1901,-0.1945,-0.2056,-0.2081,-0.2174,-0.2196,-0.2216,-0.2264,-0.2209,-0.221,-0.2165,-0.21,-0.2022,-0.1959,-0.2148,-0.2132,-0.186,-0.1863,-0.1757,-0.1751,-0.1745,-0.1741,-0.1737,0,-0.1557,-0.1588,-0.1723,-0.1753,-0.1811,-0.1892,-0.1928,-0.2047,-0.2063,-0.2149,-0.2127,-0.2128,-0.2129,-0.1933,-0.1963,-0.1876,-0.1858,-0.1817,-0.1856,-0.183,-0.1811,-0.1822,-0.1831,-0.1729,-0.1728,-0.1726,-0.1725,0,-0.1475,-0.1541,-0.159,-0.1651,-0.1705,-0.1754,-0.1818,-0.1821,-0.1924,-0.2039,-0.197,-0.1931,-0.1856,-0.1805,-0.1739,-0.1691,-0.1849,-0.1762,-0.1774,-0.181,-0.1795,-0.1784,-0.1799,-0.1707,-0.1709,-0.1711,-0.1712,0,-0.1406,-0.1418,-0.1482,-0.1514,-0.1575,-0.1567,-0.1637,-0.164,-0.168,-0.1791,-0.1755,-0.1762,-0.1818,-0.1705,-0.1649,-0.1578,-0.1564,-0.1534,-0.1557,-0.1578,-0.1549,-0.1506,-0.1281,0,0,0,0,0,-0.1326,-0.1309,-0.133,-0.1348,-0.1396,-0.1424,-0.1522,-0.1593,-0.1708,-0.1606,-0.168,-0.1604,-0.152,-0.1533,-0.1415,-0.1556,-0.1564,-0.1416,-0.1543,-0.1606,-0.1627,-0.1609,0,0,0,0,0,0,-0.1266,-0.1283,-0.1275,-0.1185,-0.1161,-0.1189,-0.1245,-0.1335,-0.1297,-0.1428,-0.1382,-0.1495,-0.1425,-0.1533,-0.137,-0.1373,-0.142,-0.1444,-0.1439,-0.1594,-0.1613,-0.163,-0.1619,0,0,0,0,0]},{"header":{"parameterUnit":"m.s-1","parameterCategory":2,"la1":30.2991,"la2":30.254,"lo1":-89.0895,"lo2":-89.0444,"dy":0.0017,"dx":0.0017,"nx":28,"ny":28,"refTime":"2025-05-29T03:00:00:Z","depth":"4","parameterNumber":3,"parameterNumberName":"V-component_of_CURRENTS"},"data":[0,0,0,0,0,0,0,0,0,0,0,0,0,0,0,0,0,0,0,0,0,0,0,0,0,0,0,0,0,0,0,0,0,0,0,0,0,0,0,0,0,0,0,0,0,0,0,0,0,0,0,0,0,0,0,0,0,0,-0.0154,-0.0154,0,-0.0097,-0.0096,-0.0096,-0.0053,-0.0053,-0.0053,-0.0052,0.0035,0.0037,0.0039,0,0,0,0,0,0,0,0,0,0,0,0,0,-0.0186,-0.0185,-0.0154,-0.0153,-0.0153,-0.0097,-0.0096,-0.0095,-0.0053,-0.0053,-0.0052,-0.0052,0.0034,0.0037,0.0039,0,0,0,0,0,0,0,0,0,0,0,0,0,-0.0153,-0.0185,-0.0154,-0.0126,-0.0123,-0.0097,-0.0096,-0.0095,-0.0053,-0.0053,-0.0052,-0.0052,0.0033,0.0036,0.0039,0.0051,0,0,0.0049,0.005,0,0,0,0,0,0,0,0,-0.0155,-0.0152,-0.0131,-0.0128,-0.0125,-0.0083,-0.0076,-0.0045,-0.0053,-0.0078,-0.0052,-0.0052,-0.0003,0.0003,0.0015,0.0055,0.0059,0.0049,0.0051,0.0053,0.0053,0,0,0,0,0,0,0,-0.0158,-0.0154,-0.013,-0.013,-0.0126,-0.0102,-0.0098,-0.0069,-0.0042,-0.0076,-0.0073,-0.0069,-0.0001,0.0011,0.0017,0.006,0.0049,0.0052,0.0054,0.0055,0.0115,0.0115,0,0,0,0,0,0,-0.017,-0.0157,-0.0132,-0.0129,-0.0141,-0.0103,-0.0097,-0.0096,-0.0043,-0.0035,-0.007,-0.0067,0.0006,0.0013,0.002,0.0038,0.0053,0.0055,0.0057,0.0116,0.0115,0.0115,0,0,0,0,0,0,-0.0171,-0.0169,-0.0134,-0.0142,-0.0136,-0.0103,-0.0101,-0.0095,-0.0084,-0.0038,-0.003,-0.0066,0.0006,0.0016,0.0041,0.0042,0.0057,0.006,0.0116,0.0116,0.0115,0.0073,0,0,0,0,0,0,-0.0172,-0.0169,-0.0174,-0.0143,-0.0136,-0.0127,-0.0102,-0.0094,-0.0083,-0.0079,-0.0032,-0.0024,0.0008,0.0036,0.0044,0.0046,0.0062,0.0116,0.0116,0.0115,0.0074,0.0071,0.0068,0,0,0,0,0,-0.0174,-0.0183,-0.0175,-0.0172,-0.0144,-0.0128,-0.0122,-0.0096,-0.0083,-0.0084,-0.0051,-0.0025,0.0039,0.0038,0.0048,0.0051,0.0117,0.0116,0.0115,0.0076,0.0071,0.0068,0,0,0,0,0,0,-0.0198,-0.0179,-0.0169,-0.0172,-0.0156,-0.0121,-0.012,-0.0102,-0.0076,-0.0073,-0.0028,-0.0017,0.0004,0.0031,0.0029,0.0066,0.0081,0.0083,0.0048,0.0044,0.0041,0.0035,0.0065,0,0,0,0,0,-0.0208,-0.0211,-0.0186,-0.019,-0.0184,-0.0154,-0.0145,-0.0127,-0.01,-0.0088,-0.0056,-0.0022,0.0009,0.0028,0.0055,0.0077,0.0111,0.0084,0.0081,0.0078,0.0079,0.0134,0.0137,0.0113,0.0113,0.0113,0,0,-0.0219,-0.0209,-0.0211,-0.0196,-0.018,-0.0176,-0.0147,-0.0139,-0.013,-0.0083,-0.0066,-0.0035,0.001,0.0033,0.0045,0.0057,0.01,0.0077,0.0074,0.0077,0.0134,0.0137,0.0139,0.0113,0.0113,0.0113,0,0,-0.0243,-0.0234,-0.0245,-0.0235,-0.0218,-0.0198,-0.0199,-0.017,-0.0153,-0.0135,-0.0097,-0.0065,-0.0025,0.0014,0.0038,0.0033,0.0076,0.0036,0.0023,0.0076,0.0079,0.0082,0.0117,0.0124,0.004,0.004,0.004,0,-0.0258,-0.0265,-0.0245,-0.0251,-0.0245,-0.0212,-0.0217,-0.0195,-0.0162,-0.0145,-0.0138,-0.0066,-0.0031,0.0015,0.0012,0.0027,0.0057,0.0034,0.0073,0.0077,0.008,0.0116,0.0124,0.0038,0.0038,0.0038,0.0039,0,-0.0285,-0.0292,-0.0297,-0.0292,-0.0284,-0.0285,-0.0254,-0.0241,-0.0218,-0.0189,-0.015,-0.01,-0.0053,-0.0039,-0.0014,0.0028,0.0039,0.0058,0.0083,0.008,0.0118,0.0127,0.0035,0.0036,0.0036,0.0037,0,0,-0.0316,-0.0318,-0.032,-0.0327,-0.0307,-0.0303,-0.0289,-0.0262,-0.0248,-0.0209,-0.0183,-0.0126,-0.0094,-0.0065,-0.0025,0.0022,0.0068,0.0045,0.0049,0.008,0.0174,0.0156,0.0164,0.0095,0.0096,0.0098,0.0186,0,-0.0344,-0.0371,-0.0356,-0.0374,-0.0383,-0.0349,-0.034,-0.0308,-0.0273,-0.024,-0.0174,-0.0141,-0.0104,-0.0086,-0.003,0.0043,0.0091,0.0042,0.0173,0.0177,0.0161,0.0173,0.0102,0.0193,0.0195,0.0197,0.0198,0,-0.0374,-0.0389,-0.0418,-0.0417,-0.0418,-0.0422,-0.0396,-0.0381,-0.032,-0.0291,-0.0233,-0.0183,-0.0108,-0.0084,0.0054,0.002,0.0091,0.0149,0.0154,0.0159,0.0175,0.0201,0.0214,0.0213,0.0212,0.021,0.0209,0,-0.0411,-0.0427,-0.0455,-0.0457,-0.0452,-0.0456,-0.0448,-0.0401,-0.0387,-0.0323,-0.0303,-0.0203,-0.0156,-0.005,0.0069,0.0064,0.0216,0.0229,0.0281,0.0281,0.029,0.0286,0.0327,0.0327,0.0327,0.0326,0.0326,0,-0.0442,-0.0464,-0.0481,-0.0497,-0.0529,-0.0504,-0.0516,-0.0488,-0.0444,-0.042,-0.0336,-0.0288,-0.0145,-0.004,0.0065,0.0199,0.0221,0.0282,0.0307,0.0267,0.026,0.0296,0.0291,0.033,0.0329,0.0328,0.0328,0,-0.0476,-0.0486,-0.0524,-0.0542,-0.0552,-0.0577,-0.0579,-0.0577,-0.0528,-0.0494,-0.0478,-0.0346,-0.0204,-0.0063,0.0116,0.0189,0.0317,0.0359,0.0295,0.0315,0.0344,0.0336,0.0425,0.0425,0.0425,0.0425,0.0425,0,-0.0494,-0.052,-0.0572,-0.0605,-0.062,-0.065,-0.0668,-0.0633,-0.0619,-0.0519,-0.0499,-0.0361,-0.0261,-0.0023,0.0125,0.0318,0.0343,0.0395,0.0378,0.0341,0.0357,0.0349,0.0341,0.0425,0.0425,0.0426,0.0426,0,-0.0528,-0.0554,-0.0589,-0.066,-0.07,-0.0735,-0.0749,-0.0747,-0.0683,-0.064,-0.0508,-0.0369,-0.0206,-0.0019,0.0125,0.0267,0.0352,0.0397,0.0398,0.0383,0.0343,0.0357,0.0349,0.0426,0.0426,0.0426,0.0426,0,-0.0555,-0.0594,-0.0645,-0.0699,-0.0758,-0.0793,-0.08,-0.0762,-0.0735,-0.0614,-0.0564,-0.0372,-0.025,-0.0043,0.0098,0.0224,0.0256,0.0281,0.0288,0.0289,0.0219,0.0147,0.0196,0,0,0,0,0,-0.0575,-0.0614,-0.0674,-0.0735,-0.0793,-0.0817,-0.0835,-0.0823,-0.0763,-0.068,-0.0618,-0.0459,-0.0217,-0.0099,0.0024,0.0084,0.0258,0.0229,0.0285,0.0429,0.0428,0.0367,0,0,0,0,0,0,-0.0588,-0.0649,-0.0674,-0.0745,-0.0786,-0.0839,-0.0852,-0.0817,-0.0758,-0.0678,-0.0547,-0.0444,-0.0212,-0.0286,0.0025,0.0068,0.0114,0.0355,0.0357,0.0429,0.0429,0.0428,0.0365,0,0,0,0,0]}]]